When you browse on this site, cookies collect data to enhance your experience and personalize the content and advertising you see.
Visit our Privacy Policy to learn more. By continuing to use the site, you agree to this use of cookies and data.
  • In Switzerland
  • List of Countries
  • For 7 days
  • Water Temperature
  • Weather Map
  • Weather Widgets
  • user-avatar
    Login

    Hourly Weather Escaldes-Engordany

    Today, 18 October, Friday

    Time Temperature Precipitation Wind Pressure Humidity
    00:00 +7°C° 0 mm 1 mps 637 mmHg 85%
    01:00 +7°C° 0 mm 1 mps 636 mmHg 84%
    02:00 +6°C° 0 mm 2 mps 636 mmHg 83%
    03:00 +6°C° 0 mm 2 mps 636 mmHg 81%
    04:00 +7°C° 0 mm 2 mps 636 mmHg 84%
    05:00 +8°C° 0 mm 1 mps 637 mmHg 86%
    06:00 +9°C° 0 mm 1 mps 637 mmHg 88%
    07:00 +10°C° 0 mm 1 mps 638 mmHg 83%
    08:00 +12°C° 0 mm 1 mps 638 mmHg 77%
    09:00 +13°C° 0 mm 1 mps 639 mmHg 72%
    10:00 +14°C° 0 mm 1 mps 639 mmHg 68%
    11:00 +15°C° 0 mm 2 mps 639 mmHg 65%
    12:00 +16°C° 0 mm 2 mps 640 mmHg 61%
    13:00 +15°C° 0 mm 2 mps 639 mmHg 63%
    14:00 +15°C° 0 mm 2 mps 639 mmHg 64%
    15:00 +15°C° 0 mm 2 mps 638 mmHg 66%
    16:00 +13°C° 0 mm 2 mps 637 mmHg 73%
    17:00 +12°C° 0 mm 2 mps 637 mmHg 81%
    18:00 +9°C° 0 mm 2 mps 636 mmHg 89%
    19:00 +9°C° 0 mm 2 mps 636 mmHg 88%
    20:00 +9°C° 0 mm 2 mps 636 mmHg 87%
    21:00 +9°C° 0 mm 2 mps 636 mmHg 86%
    22:00 +9°C° 0.1 mm 2 mps 635 mmHg 87%
    23:00 +9°C° 0.1 mm 2 mps 635 mmHg 89%

    Tomorrow, 19 October, Saturday

    Time Temperature Precipitation Wind Pressure Humidity
    00:00 +9°C° 0.1 mm 2 mps 635 mmHg 90%
    01:00 +9°C° 0.1 mm 2 mps 635 mmHg 91%
    02:00 +9°C° 0.1 mm 2 mps 634 mmHg 92%
    03:00 +8°C° 0.1 mm 2 mps 634 mmHg 93%
    04:00 +8°C° 0 mm 2 mps 634 mmHg 93%
    05:00 +7°C° 0 mm 2 mps 633 mmHg 94%
    06:00 +7°C° 0 mm 2 mps 633 mmHg 94%
    07:00 +8°C° 0 mm 2 mps 634 mmHg 88%
    08:00 +10°C° 0 mm 3 mps 634 mmHg 81%
    09:00 +11°C° 0 mm 3 mps 635 mmHg 74%
    10:00 +12°C° 0 mm 3 mps 635 mmHg 71%
    11:00 +12°C° 0 mm 3 mps 635 mmHg 67%
    12:00 +13°C° 0 mm 3 mps 634 mmHg 64%
    13:00 +12°C° 0.1 mm 3 mps 634 mmHg 68%
    14:00 +12°C° 0.1 mm 3 mps 633 mmHg 73%
    15:00 +12°C° 0.1 mm 3 mps 633 mmHg 77%
    16:00 +11°C° 0.3 mm 3 mps 632 mmHg 83%
    17:00 +10°C° 0.3 mm 3 mps 632 mmHg 88%
    18:00 +10°C° 0.3 mm 3 mps 632 mmHg 93%
    19:00 +10°C° 0.4 mm 3 mps 632 mmHg 94%
    20:00 +10°C° 0.4 mm 3 mps 632 mmHg 94%
    21:00 +10°C° 0.4 mm 4 mps 632 mmHg 95%
    22:00 +10°C° 0.2 mm 3 mps 632 mmHg 94%
    23:00 +9°C° 0.2 mm 3 mps 631 mmHg 94%

    Day after tomorrow, 20 October, Sunday

    Time Temperature Precipitation Wind Pressure Humidity
    00:00 +9°C° 0.2 mm 3 mps 631 mmHg 93%
    01:00 +9°C° 0.2 mm 3 mps 631 mmHg 92%
    02:00 +8°C° 0.2 mm 4 mps 630 mmHg 92%
    03:00 +8°C° 0.2 mm 4 mps 630 mmHg 91%
    04:00 +8°C° 1.6 mm 4 mps 630 mmHg 93%
    05:00 +9°C° 1.6 mm 3 mps 630 mmHg 94%
    06:00 +9°C° 1.6 mm 3 mps 630 mmHg 96%
    07:00 +9°C° 3 mm 3 mps 630 mmHg 95%
    08:00 +9°C° 3 mm 3 mps 631 mmHg 94%
    09:00 +8°C° 3 mm 4 mps 631 mmHg 93%
    10:00 +8°C° 0.2 mm 4 mps 631 mmHg 83%
    11:00 +10°C° 0.2 mm 4 mps 632 mmHg 74%
    12:00 +10°C° 0.2 mm 4 mps 632 mmHg 64%
    13:00 +10°C° 0 mm 4 mps 632 mmHg 61%
    14:00 +10°C° 0 mm 3 mps 633 mmHg 58%
    15:00 +10°C° 0 mm 3 mps 633 mmHg 55%
    16:00 +8°C° 0 mm 2 mps 633 mmHg 65%
    17:00 +6°C° 0 mm 2 mps 633 mmHg 74%
    18:00 +5°C° 0 mm 1 mps 633 mmHg 84%
    19:00 +4°C° 0 mm 1 mps 634 mmHg 84%
    20:00 +4°C° 0 mm 1 mps 635 mmHg 84%
    21:00 +4°C° 0 mm 1 mps 635 mmHg 85%
    22:00 +4°C° 0 mm 1 mps 635 mmHg 83%
    23:00 +4°C° 0 mm 1 mps 636 mmHg 82%

    21 October, Monday

    Time Temperature Precipitation Wind Pressure Humidity
    00:00 +4°C° 0 mm 1 mps 636 mmHg 80%
    01:00 +5°C° 0 mm 1 mps 636 mmHg 79%
    02:00 +5°C° 0 mm 1 mps 636 mmHg 78%
    03:00 +4°C° 0 mm 0 mps 636 mmHg 77%
    04:00 +4°C° 0 mm 0 mps 636 mmHg 78%
    05:00 +4°C° 0 mm 0 mps 637 mmHg 80%
    06:00 +4°C° 0 mm 0 mps 637 mmHg 82%
    07:00 +6°C° 0 mm 1 mps 637 mmHg 77%
    08:00 +7°C° 0 mm 1 mps 638 mmHg 73%
    09:00 +8°C° 0 mm 1 mps 639 mmHg 68%
    10:00 +9°C° 0 mm 1 mps 639 mmHg 66%
    11:00 +8°C° 0 mm 2 mps 639 mmHg 63%
    12:00 +9°C° 0 mm 2 mps 640 mmHg 61%
    13:00 +9°C° 0.1 mm 1 mps 639 mmHg 66%
    14:00 +9°C° 0.1 mm 1 mps 639 mmHg 71%
    15:00 +8°C° 0.1 mm 1 mps 638 mmHg 77%
    16:00 +7°C° 0.1 mm 1 mps 638 mmHg 82%
    17:00 +6°C° 0.1 mm 1 mps 638 mmHg 88%
    18:00 +5°C° 0.1 mm 1 mps 638 mmHg 94%
    19:00 +5°C° 0 mm 1 mps 638 mmHg 93%
    20:00 +5°C° 0 mm 1 mps 638 mmHg 92%
    21:00 +5°C° 0 mm 1 mps 638 mmHg 91%
    22:00 +5°C° 0 mm 1 mps 638 mmHg 90%
    23:00 +5°C° 0 mm 1 mps 638 mmHg 88%

    22 October, Tuesday

    Time Temperature Precipitation Wind Pressure Humidity
    00:00 +5°C° 0 mm 1 mps 638 mmHg 87%
    01:00 +5°C° 0.1 mm 1 mps 638 mmHg 87%
    02:00 +5°C° 0.1 mm 1 mps 638 mmHg 88%
    03:00 +5°C° 0.1 mm 1 mps 638 mmHg 88%
    04:00 +5°C° 0.2 mm 1 mps 637 mmHg 89%
    05:00 +5°C° 0.2 mm 1 mps 637 mmHg 90%
    06:00 +5°C° 0.2 mm 1 mps 637 mmHg 91%
    07:00 +6°C° 1.7 mm 1 mps 637 mmHg 92%
    08:00 +6°C° 1.7 mm 1 mps 637 mmHg 92%
    09:00 +6°C° 1.7 mm 1 mps 637 mmHg 93%
    10:00 +7°C° 2.5 mm 1 mps 637 mmHg 93%
    11:00 +7°C° 2.5 mm 1 mps 637 mmHg 92%
    12:00 +8°C° 2.5 mm 1 mps 637 mmHg 92%
    13:00 +7°C° 4.4 mm 1 mps 636 mmHg 93%
    14:00 +6°C° 4.4 mm 2 mps 636 mmHg 94%
    15:00 +5°C° 4.4 mm 2 mps 635 mmHg 95%
    16:00 +5°C° 0.7 mm 2 mps 635 mmHg 95%
    17:00 +5°C° 0.7 mm 2 mps 635 mmHg 95%
    18:00 +6°C° 0.7 mm 1 mps 635 mmHg 95%
    19:00 +5°C° 0.5 mm 2 mps 635 mmHg 95%
    20:00 +6°C° 0.5 mm 2 mps 635 mmHg 95%
    21:00 +6°C° 0.5 mm 2 mps 635 mmHg 95%
    22:00 +7°C° 0.3 mm 1 mps 634 mmHg 95%
    23:00 +7°C° 0.3 mm 1 mps 634 mmHg 95%

    23 October, Wednesday

    Time Temperature Precipitation Wind Pressure Humidity
    00:00 +8°C° 0.3 mm 1 mps 634 mmHg 95%
    01:00 +8°C° 1.4 mm 1 mps 634 mmHg 96%
    02:00 +8°C° 1.4 mm 1 mps 633 mmHg 96%
    03:00 +8°C° 1.4 mm 1 mps 633 mmHg 97%
    04:00 +7°C° 1.5 mm 2 mps 632 mmHg 96%
    05:00 +7°C° 1.5 mm 3 mps 632 mmHg 95%
    06:00 +7°C° 1.5 mm 3 mps 632 mmHg 94%
    07:00 +7°C° 1 mm 3 mps 631 mmHg 95%
    08:00 +8°C° 1 mm 3 mps 631 mmHg 96%
    09:00 +8°C° 1 mm 2 mps 631 mmHg 96%
    10:00 +8°C° 3.8 mm 3 mps 631 mmHg 96%
    11:00 +8°C° 3.8 mm 3 mps 631 mmHg 96%
    12:00 +8°C° 3.8 mm 3 mps 630 mmHg 96%
    13:00 +8°C° 4.9 mm 3 mps 630 mmHg 95%
    14:00 +8°C° 4.9 mm 3 mps 630 mmHg 94%
    15:00 +8°C° 4.9 mm 3 mps 630 mmHg 93%
    16:00 +8°C° 0.7 mm 3 mps 629 mmHg 93%
    17:00 +7°C° 0.7 mm 3 mps 629 mmHg 94%
    18:00 +7°C° 0.7 mm 3 mps 629 mmHg 95%
    19:00 +7°C° 2.6 mm 3 mps 629 mmHg 96%
    20:00 +7°C° 2.6 mm 2 mps 629 mmHg 97%
    21:00 +6°C° 2.6 mm 2 mps 629 mmHg 97%
    22:00 +6°C° 1.1 mm 2 mps 630 mmHg 97%
    23:00 +6°C° 1.1 mm 2 mps 630 mmHg 96%
    Show more